Location: Dos Palmas
(32.4468°N, 116.8732°W)
Time: 00:30:06
(UTC+00:00)

Meteor 1-28 Rocket - Pass Details

Date: 20 June 2021
Orbit: 502 x 523 km, 97.4° (Epoch: 01 August)

Event Time Altitude Azimuth Distance (km) Brightness Sun altitude
Exits shadow 10:40:29 69° 248° (WSW) 561 3.1 -20.8°
Maximum altitude 10:40:33 69° 259° (W) 560 3.1 -20.7°
Drops below altitude 10° 10:44:21 10° 343° (NNW) 1,763 6.3 -20.2°
Sets 10:46:28 0° 346° (NNW) 2,656 7.3 -19.9°
